Tiempo atmosférico en la estación meteorológica de Banyalbufar, Illes Balears (60 m.)



Fecha
DESCASC
Temp. máxima en grados centígrados (hora)
DESCASC
Temp. mínima en grados centígrados (hora)
DESCASC
Temp. media en grados centígrados
DESCASC
Racha de viento máxima en m/sg (hora)
DESCASC
Velocidad máxima media en intervalos de 10 minutos(hora)
DESCASC
Precipitaciones diarias en mm
DESCASC
Precipitaciones de 00:00 a 06:00 en mm
DESCASC
Precipitaciones de 06:00 a 12:00 en mm
DESCASC
Precipitaciones de 12:00 a 18:00 en mm
DESCASC
Precipitaciones de 18:00 a 24:00 en mm
DESCASC
13-10-2019 27.2 (16:30) 19.3 (08:10) 23.3 7.22 (09:00) 3.89 (09:50) 0 0 0 0 0
12-10-2019 25.3 (16:40) 19.2 (07:00) 22.3 9.72 (12:20) 5 (12:20) 0 0 0 0 0
11-10-2019 25.3 (13:40) 18.1 (06:00) 21.7 6.11 (17:30) 3.33 (18:00) 0 0 0 0 0
10-10-2019 24.6 (14:10) 19 (00:00) 21.8 7.78 (01:20) 3.89 (02:00) 0 0 0 0 0
09-10-2019 24.8 (11:00) 18.5 (00:00) 21.6 7.5 (23:20) 4.72 (19:40) 0 0 0 0 0
08-10-2019 24.8 (17:10) 16.4 (00:00) 20.6 7.22 (15:20) 4.17 (18:30) 0 0 0 0 0
07-10-2019 22.9 (04:20) 17.8 (00:00) 20.3 16.94 (05:40) 12.22 (05:40) 0 0 0 0 0
06-10-2019 25.2 (15:10) 18.6 (00:00) 21.9 4.44 (16:50) 3.33 (23:50) 0 0 0 0 0
05-10-2019 25.9 (16:30) 18.6 (00:00) 22.3 4.44 (18:00) 3.33 (05:40) 0 0 0 0 0
04-10-2019 25.8 (16:40) 16 (00:00) 20.9 5.28 (17:50) 3.61 (06:50) 0 0 0 0 0
03-10-2019 23.9 (16:20) 17 (00:00) 20.4 7.78 (07:00) 5.56 (12:30) 0 0 0 0 0
02-10-2019 24 (10:10) 19.2 (00:00) 21.6 10.83 (04:30) 7.22 (04:30) 0.4 0 0.4 0 0
01-10-2019 26.5 (12:40) 19 (00:00) 22.8 8.06 (14:20) 5.56 (14:30) 0 0 0 0 0
30-09-2019 25.9 (16:00) 19.5 (00:00) 22.7 5.56 (13:00) 3.89 (13:00) 0 0 0 0 0
29-09-2019 28.9 (18:10) 18.7 (00:00) 23.8 4.17 (21:20) 3.06 (04:50) 0 0 0 0 0
28-09-2019 26.4 (15:50) 19.7 (00:00) 23.1 5.28 (13:30) 3.33 (13:30) 0 0 0 0 0
27-09-2019 26.5 (18:30) 19.7 (00:00) 23.1 3.89 (18:10) 3.33 (21:30) 0 0 0 0 0
26-09-2019 26.5 (18:20) 19 (00:00) 22.8 4.17 (03:30) 3.33 (07:40) 0 0 0 0 0
25-09-2019 25 (09:40) 19.8 (00:00) 22.4 10 (15:30) 6.67 (15:00) 0 0 0 0 0
24-09-2019 27.8 (15:40) 19.3 (00:00) 23.5 9.17 (18:00) 5.83 (17:50) 0 0 0 0 0
23-09-2019 25.4 (16:50) 20 (00:00) 22.7 7.78 (06:00) 4.17 (01:30) 0 0 0 0 0
22-09-2019 27.9 (16:00) 22 (00:00) 24.9 6.94 (17:10) 4.72 (13:10) 0 0 0 0 0
21-09-2019 28 (15:10) 23 (00:00) 25.5 14.44 (07:20) 7.78 (07:40) 0 0 0 0 0
20-09-2019 25.4 (12:50) 21.1 (00:00) 23.3 8.33 (14:40) 5.28 (14:40) 0 0 0 0 0
19-09-2019 25.3 (14:20) 19.5 (00:00) 22.4 5.83 (16:50) 3.89 (16:50) 0 0 0 0 0
18-09-2019 26.9 (16:40) 19.4 (00:00) 23.1 4.17 (19:00) 3.06 (22:50) 0 0 0 0 0
17-09-2019 26.2 (17:40) 21.5 (00:00) 23.9 4.17 (16:40) 2.5 (16:40) 0 0 0 0 0
16-09-2019 27.1 (11:40) 22 (00:00) 24.6 9.44 (10:20) 5 (12:00) 0 0 0 0 0

Gráficas

Temp. máximas Temp. mínimas Temp. medias Precipitaciones Rachas de viento máximas Velocidades máximas media en intervalos de 10 minutos

Datos horarios

Fecha y hora oficial Temperatura (ºC) Velocidad del viento (km/h) Dirección del viento Racha (km/h) Dirección de racha Precipitación (mm) Presión (hPa) Tendencia (hPa) Humedad (%)
2019-10-15 23:00:00 15.9 12 Sur 19 Sudoeste 0 -- -- 63
2019-10-15 22:00:00 16.4 11 Sudoeste 16 Sudoeste 0 -- -- 61
2019-10-15 21:00:00 16.4 11 Sudoeste 15 Sur 0 -- -- 61
2019-10-15 20:00:00 17.1 9 Sudoeste 19 Oeste 0 -- -- 57
2019-10-15 19:00:00 19 12 Noroeste 23 Noroeste 0 -- -- 53
2019-10-15 18:00:00 19.8 10 Norte 27 Norte 0 -- -- 47
2019-10-15 17:00:00 20.1 14 Norte 28 Norte 0 -- -- 50
2019-10-15 16:00:00 19.3 15 Noroeste 31 Noroeste 0 -- -- 52
2019-10-15 15:00:00 19.6 12 Noroeste 26 Noroeste 0 -- -- 54
2019-10-15 14:00:00 19.2 9 Noroeste 30 Norte 0 -- -- 55
2019-10-15 13:00:00 19.1 14 Noroeste 27 Norte 0 -- -- 55
2019-10-15 12:00:00 18.6 16 Norte 36 Norte 0 -- -- 57
2019-10-15 11:00:00 18.6 23 Norte 40 Norte 0 -- -- 63
2019-10-15 10:00:00 18.4 25 Norte 44 Noroeste 0 -- -- 63
2019-10-15 09:00:00 18.7 32 Norte 46 Norte 0 -- -- 62
2019-10-15 08:00:00 19.4 32 Norte 46 Noroeste 0 -- -- 63
2019-10-15 07:00:00 19.6 32 Norte 43 Noroeste 0 -- -- 72
2019-10-15 06:00:00 20.5 24 Norte 33 Noroeste 0 -- -- 78
2019-10-15 05:00:00 21.6 29 Norte 40 Noroeste 0 -- -- 80
2019-10-15 04:00:00 21.4 14 Sudoeste 31 Sudoeste 0.6 -- -- 83
2019-10-15 03:00:00 21.4 15 Sudoeste 35 Sudoeste 0 -- -- 82
2019-10-15 02:00:00 20.3 19 Sur 34 Sur 1.2 -- -- 82
2019-10-15 01:00:00 22.9 15 Sur 35 Sudeste 0 -- -- 73
2019-10-15 00:00:00 22.8 19 Sudeste 40 Sur 0 -- -- 74
2019-10-14 23:00:00 23.3 18 Sudeste 41 Sudeste 0 -- -- 72
2019-10-14 22:00:00 23.2 19 Sudeste 45 Sudeste 0 -- -- 75
2019-10-14 21:00:00 20.9 8 Sur 18 Sudoeste 0 -- -- 85
2019-10-14 20:00:00 21 5 Oeste 29 Sudeste 0.4 -- -- 90
2019-10-14 19:00:00 20.6 7 Nordeste 42 Noroeste 0 -- -- 96
2019-10-14 18:00:00 22.6 14 Norte 29 Norte 0.2 -- -- 97
2019-10-14 17:00:00 23 14 Norte 24 Norte 0 -- -- 94
2019-10-14 16:00:00 24.8 7 Norte 18 Noroeste 0 -- -- 85
2019-10-14 15:00:00 25.4 5 Noroeste 24 Noroeste 0 -- -- 79
2019-10-14 14:00:00 25.2 5 Norte 25 Nordeste 0 -- -- 80
2019-10-14 13:00:00 26.1 8 Nordeste 20 Nordeste 0 -- -- 71
2019-10-14 12:00:00 25.1 4 Norte 12 Noroeste 0 -- -- 67
2019-10-14 11:00:00 23.5 4 Oeste 10 Sur 0 -- -- 85
2019-10-14 10:00:00 22.8 3 Sur 12 Sur 0 -- -- 82
2019-10-14 09:00:00 21 6 Sur 33 Sudoeste 0 -- -- 81
2019-10-14 08:00:00 21.9 10 Oeste 31 Oeste 0 -- -- 67
2019-10-14 07:00:00 18.9 8 Sur 16 Sur 0 -- -- 73
2019-10-14 06:00:00 19.4 8 Sudeste 13 Sudeste 0 -- -- 91
2019-10-14 05:00:00 18.9 10 Sur 14 Sur 0 -- -- 89
2019-10-14 04:00:00 19.4 11 Sur 14 Sur 0 -- -- 89
2019-10-14 03:00:00 19.3 10 Sur 14 Sur 0 -- -- 88
2019-10-14 02:00:00 19.3 8 Sur 13 Sur 0 -- -- 86
2019-10-14 01:00:00 19.8 10 Sur 13 Sur 0 -- -- 84
2019-10-14 00:00:00 19.8 8 Sur 12 Sur 0 -- -- 83
2019-10-13 23:00:00 20.5 7 Sur 12 Sur 0 -- -- 82
2019-10-13 22:00:00 20.6 7 Sur 10 Sur 0 -- -- 81
2019-10-13 21:00:00 21 4 Sur 11 Sur 0 -- -- 78
2019-10-13 20:00:00 21.3 6 Sur 10 Sudoeste 0 -- -- 81
2019-10-13 19:00:00 23.3 3 Sudoeste 17 Oeste 0 -- -- 84
2019-10-13 18:00:00 24.8 9 Oeste 17 Oeste 0 -- -- 80
2019-10-13 17:00:00 25.3 9 Oeste 15 Oeste 0 -- -- 75
2019-10-13 16:00:00 26 7 Oeste 20 Oeste 0 -- -- 66
2019-10-13 15:00:00 24.8 9 Oeste 17 Oeste 0 -- -- 78
2019-10-13 14:00:00 24.7 4 Norte 15 Norte 0 -- -- 78
2019-10-13 13:00:00 24.4 8 Noroeste 18 Oeste 0 -- -- 77
2019-10-13 12:00:00 25.3 5 Oeste 17 Oeste 0 -- -- 65
2019-10-13 11:00:00 25.1 2 Oeste 21 Nordeste 0 -- -- 63
2019-10-13 10:00:00 22.9 13 Nordeste 24 Nordeste 0 -- -- 79
2019-10-13 09:00:00 22 12 Sudeste 26 Este 0 -- -- 69
2019-10-13 08:00:00 19.4 10 Sur 13 Sur 0 -- -- 77
2019-10-13 07:00:00 19.6 9 Sur 13 Sur 0 -- -- 82
2019-10-13 06:00:00 20.6 7 Sur 12 Sur 0 -- -- 78
2019-10-13 05:00:00 21 8 Sur 12 Sur 0 -- -- 78
2019-10-13 04:00:00 20.6 8 Sur 13 Sur 0 -- -- 77
2019-10-13 03:00:00 20.7 6 Sur 12 Sur 0 -- -- 75
2019-10-13 02:00:00 21.1 6 Sudeste 14 Sur 0 -- -- 73
2019-10-13 01:00:00 21.3 10 Sudoeste 14 Sudoeste 0 -- -- 73
2019-10-13 00:00:00 21.2 12 Sur 16 Sudoeste 0 -- -- 77
2019-10-12 23:00:00 21.1 7 Sur 14 Sudoeste 0 -- -- 85
2019-10-12 22:00:00 20.8 6 Sur 12 Sur 0 -- -- 87
2019-10-12 21:00:00 21.9 6 Sudoeste 16 Sudoeste 0 -- -- 86
2019-10-12 20:00:00 21.6 5 Sudoeste 12 Oeste 0 -- -- 85
2019-10-12 19:00:00 22.6 5 Sur 9 Sur 0 -- -- 75
2019-10-12 18:00:00 24.7 3 Norte 7 Norte 0 -- -- 72
2019-10-12 17:00:00 25.1 3 Norte 9 Norte 0 -- -- 71
2019-10-12 16:00:00 24.7 5 Norte 12 Norte 0 -- -- 74
2019-10-12 15:00:00 24.1 8 Norte 18 Noroeste 0 -- -- 75
2019-10-12 14:00:00 24.5 8 Norte 25 Norte 0 -- -- 71
2019-10-12 13:00:00 23.9 13 Nordeste 35 Nordeste 0 -- -- 71
2019-10-12 12:00:00 24 12 Nordeste 27 Nordeste 0 -- -- 69
2019-10-12 11:00:00 22.8 14 Nordeste 27 Nordeste 0 -- -- 74
2019-10-12 10:00:00 22.9 2 Sudeste 9 Sur 0 -- -- 74
2019-10-12 09:00:00 20.2 6 Sur 13 Sur 0 -- -- 77
2019-10-12 08:00:00 19.8 8 Sudeste 19 Sudeste 0 -- -- 77
2019-10-12 07:00:00 19.2 7 Sur 12 Sur 0 -- -- 80
2019-10-12 06:00:00 20.5 6 Sudeste 18 Este 0 -- -- 75
2019-10-12 05:00:00 19.7 8 Sur 14 Sur 0 -- -- 79
2019-10-12 04:00:00 20.1 8 Sur 13 Sur 0 -- -- 79
2019-10-12 03:00:00 20.5 8 Sur 15 Sudeste 0 -- -- 77
2019-10-12 02:00:00 19.8 9 Sur 13 Sur 0 -- -- 79
2019-10-12 01:00:00 20.9 5 Sudeste 13 Este 0 -- -- 76
2019-10-12 00:00:00 21.6 6 Sudeste 18 Sudeste 0 -- -- 73
2019-10-11 23:00:00 20.8 4 Sudeste 11 Sur 0 -- -- 79
2019-10-11 22:00:00 20.9 5 Sur 13 Sur 0 -- -- 82
2019-10-11 21:00:00 21.4 4 Sur 10 Nordeste 0 -- -- 79
2019-10-11 20:00:00 21.5 5 Sur 14 Nordeste 0 -- -- 78
2019-10-11 19:00:00 23.2 6 Norte 18 Nordeste 0 -- -- 74
2019-10-11 18:00:00 23.6 12 Nordeste 22 Nordeste 0 -- -- 77
2019-10-11 17:00:00 24 10 Nordeste 20 Norte 0 -- -- 75
2019-10-11 16:00:00 23.9 10 Norte 17 Norte 0 -- -- 75
2019-10-11 15:00:00 25.1 7 Norte 12 Oeste 0 -- -- 69
2019-10-11 14:00:00 25.3 5 Norte 8 Norte 0 -- -- 64
2019-10-11 13:00:00 24.4 6 Norte 9 Noroeste 0 -- -- 68
2019-10-11 12:00:00 23.9 0 Calma 6 Norte 0 -- -- 68
2019-10-11 11:00:00 23.8 0 Calma 6 Sudoeste 0 -- -- 69
2019-10-11 10:00:00 22.7 0 Calma 9 Sur 0 -- -- 73
2019-10-11 09:00:00 19.8 5 Sur 9 Sur 0 -- -- 82
2019-10-11 08:00:00 18.8 5 Sur 10 Sur 0 -- -- 88
2019-10-11 07:00:00 18.2 8 Sur 11 Sur 0 -- -- 88
2019-10-11 06:00:00 18.1 8 Sur 10 Sur 0 -- -- 86
2019-10-11 05:00:00 18.6 6 Sudeste 11 Sur 0 -- -- 86
2019-10-11 04:00:00 18.4 7 Sur 10 Sur 0 -- -- 85
2019-10-11 03:00:00 18.4 9 Sur 11 Sur 0 -- -- 83
2019-10-11 02:00:00 18.7 6 Sur 14 Sudeste 0 -- -- 81
2019-10-11 01:00:00 19.2 6 Sur 9 Sudeste 0 -- -- 78
2019-10-11 00:00:00 19.6 4 Sudeste 19 Sur 0 -- -- 76
2019-10-10 23:00:00 20.2 6 Sudeste 22 Sur 0 -- -- 74
2019-10-10 22:00:00 20.6 6 Sur 15 Sudeste 0 -- -- 74
2019-10-10 21:00:00 21 9 Sudoeste 18 Sudoeste 0 -- -- 71
2019-10-10 20:00:00 21.4 2 Este 9 Oeste 0 -- -- 74
2019-10-10 19:00:00 22.1 4 Norte 13 Sur 0 -- -- 67
2019-10-10 18:00:00 22.4 3 Este 17 Norte 0 -- -- 67
2019-10-10 17:00:00 22.7 6 Nordeste 20 Sudeste 0 -- -- 70
2019-10-10 16:00:00 22.7 6 Norte 10 Norte 0 -- -- 76
2019-10-10 15:00:00 23.1 7 Norte 13 Nordeste 0 -- -- 76
2019-10-10 14:00:00 24.4 5 Nordeste 15 Nordeste 0 -- -- 66
2019-10-10 13:00:00 23.7 6 Norte 9 Noroeste 0 -- -- 69
2019-10-10 12:00:00 24 4 Oeste 18 Este 0 -- -- 69
2019-10-10 11:00:00 23.2 12 Sudeste 25 Sudeste 0 -- -- 71
2019-10-10 10:00:00 21.8 6 Sudeste 15 Sudeste 0 -- -- 76
2019-10-10 09:00:00 20.7 8 Sur 13 Sudoeste 0 -- -- 77
2019-10-10 08:00:00 19.8 8 Sudeste 13 Sudeste 0 -- -- 77
2019-10-10 07:00:00 19.2 6 Sur 15 Sudeste 0 -- -- 76
2019-10-10 06:00:00 19.3 7 Sur 15 Sudeste 0 -- -- 75
2019-10-10 05:00:00 20.7 11 Sudeste 26 Sudeste 0 -- -- 70
2019-10-10 04:00:00 19.2 7 Sur 14 Sur 0 -- -- 77
2019-10-10 03:00:00 20.6 6 Sur 21 Sudeste 0 -- -- 75
2019-10-10 02:00:00 21.1 14 Sudeste 28 Sudeste 0 -- -- 76
2019-10-10 01:00:00 21.1 10 Sudeste 22 Este 0 -- -- 77
2019-10-10 00:00:00 21.5 12 Sudeste 27 Sur 0 -- -- 76
2019-10-09 23:00:00 20.4 9 Sudeste 15 Este 0 -- -- 81
2019-10-09 22:00:00 20.5 6 Sudoeste 22 Nordeste 0 -- -- 79
2019-10-09 21:00:00 21.6 10 Nordeste 22 Este 0 -- -- 77
2019-10-09 20:00:00 22.1 13 Nordeste 26 Nordeste 0 -- -- 76
2019-10-09 19:00:00 22.6 13 Nordeste 19 Nordeste 0 -- -- 74
2019-10-09 18:00:00 23.3 10 Nordeste 19 Nordeste 0 -- -- 62
2019-10-09 17:00:00 24.1 9 Nordeste 14 Nordeste 0 -- -- 61
2019-10-09 16:00:00 24 9 Norte 15 Norte 0 -- -- 59
2019-10-09 15:00:00 24.2 7 Nordeste 18 Nordeste 0 -- -- 60
2019-10-09 14:00:00 23.7 8 Nordeste 13 Norte 0 -- -- 58
2019-10-09 13:00:00 23.5 7 Norte 11 Nordeste 0 -- -- 59
2019-10-09 12:00:00 24.4 0 Calma 6 Noroeste 0 -- -- 54
2019-10-09 11:00:00 24.8 0 Calma 8 Sur 0 -- -- 52
2019-10-09 10:00:00 22.7 0 Calma 10 Sur 0 -- -- 60
2019-10-09 09:00:00 18.8 8 Sur 12 Sur 0 -- -- 73
2019-10-09 08:00:00 18.8 6 Sudeste 11 Sudeste 0 -- -- 66
2019-10-09 07:00:00 19.2 6 Sur 10 Sur 0 -- -- 66
2019-10-09 06:00:00 19.2 5 Sudeste 8 Sudeste 0 -- -- 65
2019-10-09 05:00:00 20.9 5 Nordeste 15 Sudeste 0 -- -- 59
2019-10-09 04:00:00 21 3 Nordeste 12 Este 0 -- -- 61
2019-10-09 03:00:00 20.3 5 Este 10 Oeste 0 -- -- 61
2019-10-09 02:00:00 20.3 7 Sur 13 Sudoeste 0 -- -- 61
2019-10-09 01:00:00 19.8 6 Sudeste 13 Este 0 -- -- 62
2019-10-09 00:00:00 19.6 3 Sudeste 9 Sudeste 0 -- -- 63
2019-10-08 23:00:00 20.2 6 Sudeste 22 Sur 0 -- -- 64
2019-10-08 22:00:00 19.7 6 Sudeste 14 Sur 0 -- -- 65
2019-10-08 21:00:00 20 7 Sur 13 Sur 0 -- -- 65
2019-10-08 20:00:00 19.8 7 Sur 13 Sur 0 -- -- 66
2019-10-08 19:00:00 22.9 6 Sudoeste 26 Oeste 0 -- -- 60
2019-10-08 18:00:00 23.9 10 Sudoeste 24 Oeste 0 -- -- 59
2019-10-08 17:00:00 24.4 8 Oeste 21 Oeste 0 -- -- 57
2019-10-08 16:00:00 24.2 10 Oeste 26 Oeste 0 -- -- 57
2019-10-08 15:00:00 23.9 12 Oeste 23 Oeste 0 -- -- 55
2019-10-08 14:00:00 23.6 12 Oeste 21 Oeste 0 -- -- 57
2019-10-08 13:00:00 23.7 8 Oeste 18 Oeste 0 -- -- 52
2019-10-08 12:00:00 23.4 5 Noroeste 12 Noroeste 0 -- -- 48
2019-10-08 11:00:00 23.2 5 Sudoeste 14 Sur 0 -- -- 50
2019-10-08 10:00:00 22.1 6 Sudoeste 16 Sudoeste 0 -- -- 59
2019-10-08 09:00:00 18 10 Sur 14 Sur 0 -- -- 59
2019-10-08 08:00:00 16.6 13 Sur 15 Sur 0 -- -- 68
2019-10-08 07:00:00 16.8 11 Sur 15 Sur 0 -- -- 67
2019-10-08 06:00:00 16.4 12 Sur 15 Sur 0 -- -- 55
2019-10-08 05:00:00 18.1 8 Sudeste 14 Este 0 -- -- 55
2019-10-08 04:00:00 18.6 10 Sur 17 Sudeste 0 -- -- 56
2019-10-08 03:00:00 18.9 10 Sudeste 25 Sudeste 0 -- -- 56
2019-10-08 02:00:00 19.4 11 Sudeste 24 Sudeste 0 -- -- 55
2019-10-08 01:00:00 19.2 10 Sudeste 16 Sudeste 0 -- -- 53
2019-10-08 00:00:00 18.5 9 Sudeste 17 Sudeste 0 -- -- 76
2019-10-07 23:00:00 18.6 9 Sudeste 14 Sudeste 0 -- -- 77
2019-10-07 22:00:00 18 5 Sudeste 14 Sur 0 -- -- 69
2019-10-07 21:00:00 18.2 8 Sur 14 Sudeste 0 -- -- 69
2019-10-07 20:00:00 19.3 5 Sur 10 Sur 0 -- -- 72
2019-10-07 19:00:00 21.2 4 Norte 11 Norte 0 -- -- 69
2019-10-07 18:00:00 22.1 8 Norte 14 Norte 0 -- -- 65
2019-10-07 17:00:00 22.4 8 Norte 17 Norte 0 -- -- 64
2019-10-07 16:00:00 22.3 10 Norte 20 Norte 0 -- -- 66
2019-10-07 15:00:00 22.2 10 Nordeste 24 Nordeste 0 -- -- 64
2019-10-07 14:00:00 21.5 16 Nordeste 26 Nordeste 0 -- -- 66
2019-10-07 13:00:00 21.9 15 Nordeste 32 Nordeste 0 -- -- 66
2019-10-07 12:00:00 21 15 Nordeste 34 Nordeste 0 -- -- 67
2019-10-07 11:00:00 20.6 20 Nordeste 32 Nordeste 0 -- -- 69
2019-10-07 10:00:00 20.2 8 Este 22 Nordeste 0 -- -- 70
2019-10-07 09:00:00 21 11 Nordeste 23 Noroeste 0 -- -- 72
2019-10-07 08:00:00 20.5 18 Norte 48 Norte 0 -- -- 66
2019-10-07 07:00:00 20.9 35 Norte 52 Noroeste 0 -- -- 63
2019-10-07 06:00:00 21.9 40 Norte 61 Noroeste 0 -- -- 58
2019-10-07 05:00:00 22.4 37 Norte 52 Noroeste 0 -- -- 62
2019-10-07 04:00:00 22.8 30 Norte 42 Noroeste 0 -- -- 64
2019-10-07 03:00:00 22 9 Sudoeste 23 Sudoeste 0 -- -- 83
2019-10-07 02:00:00 21.4 13 Sudoeste 19 Sudoeste 0 -- -- 84
2019-10-07 01:00:00 19.3 10 Sur 14 Sur 0 -- -- 79
2019-10-07 00:00:00 18.8 11 Sur 14 Sur 0 -- -- 76
2019-10-06 23:00:00 19.7 6 Sur 12 Sur 0 -- -- 82
2019-10-06 22:00:00 19 8 Sur 12 Sur 0 -- -- 81
2019-10-06 21:00:00 20 7 Sur 13 Sur 0 -- -- 81
2019-10-06 20:00:00 20 11 Sur 13 Sur 0 -- -- 80
2019-10-06 19:00:00 23.2 4 Sur 12 Oeste 0 -- -- 71
2019-10-06 18:00:00 24.4 6 Oeste 15 Oeste 0 -- -- 72
2019-10-06 17:00:00 23.8 10 Oeste 16 Noroeste 0 -- -- 73
2019-10-06 16:00:00 24.4 7 Noroeste 12 Oeste 0 -- -- 73
2019-10-06 15:00:00 24.6 7 Norte 10 Norte 0 -- -- 72
2019-10-06 14:00:00 24.3 6 Norte 14 Norte 0 -- -- 76
2019-10-06 13:00:00 23.7 4 Norte 12 Norte 0 -- -- 77
2019-10-06 12:00:00 23.5 5 Norte 9 Norte 0 -- -- 81
2019-10-06 11:00:00 23.6 3 Noroeste 11 Sur 0 -- -- 78
2019-10-06 10:00:00 21.4 6 Sur 13 Sur 0 -- -- 79
2019-10-06 09:00:00 19.8 10 Sur 13 Sur 0 -- -- 93
2019-10-06 08:00:00 18.7 9 Sur 12 Sur 0 -- -- 94
2019-10-06 07:00:00 18.8 8 Sur 12 Sur 0 -- -- 93
2019-10-06 06:00:00 18.9 8 Sur 13 Sur 0 -- -- 93
2019-10-06 05:00:00 19.1 9 Sur 12 Sur 0 -- -- 95
2019-10-06 04:00:00 19.3 8 Sur 13 Sur 0 -- -- 95
2019-10-06 03:00:00 18.8 10 Sur 13 Sudoeste 0 -- -- 94
2019-10-06 02:00:00 19.6 6 Sur 12 Sur 0 -- -- 95
2019-10-06 01:00:00 20.1 6 Sur 12 Sur 0 -- -- 91
2019-10-06 00:00:00 19.3 9 Sur 12 Sur 0 -- -- 92
2019-10-05 23:00:00 19.5 10 Sur 13 Sur 0 -- -- 91
2019-10-05 22:00:00 19.8 9 Sur 12 Sur 0 -- -- 89
2019-10-05 21:00:00 20.1 8 Sur 12 Sur 0 -- -- 86
2019-10-05 20:00:00 20.7 10 Sur 12 Sur 0 -- -- 79
2019-10-05 19:00:00 24.1 4 Sur 16 Oeste 0 -- -- 68
2019-10-05 18:00:00 24.3 9 Oeste 16 Oeste 0 -- -- 68
2019-10-05 17:00:00 25.4 6 Noroeste 10 Noroeste 0 -- -- 64
2019-10-05 16:00:00 25.4 5 Noroeste 10 Oeste 0 -- -- 64
2019-10-05 15:00:00 25.6 4 Noroeste 8 Noroeste 0 -- -- 64
2019-10-05 14:00:00 24.5 3 Oeste 9 Norte 0 -- -- 66
2019-10-05 13:00:00 24.5 0 Calma 4 Noroeste 0 -- -- 66
2019-10-05 12:00:00 23.9 0 Calma 5 Norte 0 -- -- 67
2019-10-05 11:00:00 24.4 0 Calma 6 Sur 0 -- -- 64
2019-10-05 10:00:00 22.2 2 Sudeste 8 Sur 0 -- -- 71
2019-10-05 09:00:00 19.6 6 Sur 12 Sur 0 -- -- 75
2019-10-05 08:00:00 18.6 9 Sur 12 Sur 0 -- -- 74
2019-10-05 07:00:00 18.6 8 Sur 12 Sur 0 -- -- 64
2019-10-05 06:00:00 18.7 7 Sur 14 Sur 0 -- -- 64
2019-10-05 05:00:00 19.7 5 Sur 13 Sur 0 -- -- 57
2019-10-05 04:00:00 20.7 10 Sudeste 13 Sudeste 0 -- -- 55
2019-10-05 03:00:00 20.5 7 Sur 14 Sur 0 -- -- 52
2019-10-05 02:00:00 20.6 5 Sudeste 11 Sur 0 -- -- 52
2019-10-05 01:00:00 20 11 Sur 14 Sur 0 -- -- 54
2019-10-05 00:00:00 20.2 8 Sur 13 Sur 0 -- -- 57
2019-10-04 23:00:00 20.9 8 Sur 15 Sur 0 -- -- 56
2019-10-04 22:00:00 21.6 10 Sur 15 Sur 0 -- -- 54
2019-10-04 21:00:00 21.1 5 Sur 15 Sur 0 -- -- 55
2019-10-04 20:00:00 20.4 11 Sur 14 Sur 0 -- -- 54
2019-10-04 19:00:00 23.2 8 Sur 14 Oeste 0 -- -- 59
2019-10-04 18:00:00 25.1 9 Oeste 19 Sudoeste 0 -- -- 58
2019-10-04 17:00:00 25.6 4 Norte 9 Norte 0 -- -- 61
2019-10-04 16:00:00 25.3 4 Norte 9 Norte 0 -- -- 60
2019-10-04 15:00:00 24.5 5 Norte 8 Norte 0 -- -- 59
2019-10-04 14:00:00 23.8 2 Norte 6 Norte 0 -- -- 53
2019-10-04 13:00:00 23.5 3 Norte 7 Oeste 0 -- -- 55
2019-10-04 12:00:00 22.9 0 Calma 5 Norte 0 -- -- 57
2019-10-04 11:00:00 21.8 2 Sudoeste 11 Sur 0 -- -- 63
2019-10-04 10:00:00 18.9 8 Sur 13 Sur 0 -- -- 67
2019-10-04 09:00:00 17.4 8 Sur 14 Sur 0 -- -- 70
2019-10-04 08:00:00 16 9 Sur 15 Sur 0 -- -- 73
2019-10-04 07:00:00 16.1 12 Sur 15 Sur 0 -- -- 83
2019-10-04 06:00:00 16.5 8 Sur 13 Sur 0 -- -- 86
2019-10-04 05:00:00 16.7 10 Sur 14 Sur 0 -- -- 83
2019-10-04 04:00:00 16.7 8 Sur 13 Sur 0 -- -- 85
2019-10-04 03:00:00 17.4 8 Sudeste 15 Sur 0 -- -- 83
2019-10-04 02:00:00 16.8 12 Sur 14 Sur 0 -- -- 82
2019-10-04 01:00:00 17 10 Sur 15 Sur 0 -- -- 83
2019-10-04 00:00:00 17 11 Sur 14 Sur 0 -- -- 81
2019-10-03 23:00:00 17.3 10 Sur 13 Sur 0 -- -- 78
2019-10-03 22:00:00 17.3 10 Sur 14 Sur 0 -- -- 74
2019-10-03 21:00:00 17.4 10 Sur 13 Sur 0 -- -- 71
2019-10-03 20:00:00 18 10 Sur 13 Sur 0 -- -- 74
2019-10-03 19:00:00 21.6 8 Sur 11 Sur 0 -- -- 68
2019-10-03 18:00:00 23.9 3 Noroeste 12 Noroeste 0 -- -- 61
2019-10-03 17:00:00 23.5 5 Noroeste 13 Norte 0 -- -- 67
2019-10-03 16:00:00 23.5 7 Norte 15 Norte 0 -- -- 71
2019-10-03 15:00:00 23.1 8 Noroeste 20 Noroeste 0 -- -- 72
2019-10-03 14:00:00 23.2 13 Norte 23 Norte 0 -- -- 75
2019-10-03 13:00:00 23.2 8 Norte 27 Noroeste 0 -- -- 74
2019-10-03 12:00:00 23.5 9 Norte 15 Norte 0 -- -- 72
2019-10-03 11:00:00 22.6 10 Noroeste 23 Oeste 0 -- -- 72
2019-10-03 10:00:00 22.3 10 Sudoeste 24 Sudoeste 0 -- -- 75
2019-10-03 09:00:00 21.8 9 Sudoeste 21 Sur 0 -- -- 78
2019-10-03 08:00:00 20.5 15 Sur 22 Sur 0 -- -- 81
2019-10-03 07:00:00 20.7 16 Sur 28 Sudoeste 0 -- -- 79
2019-10-03 06:00:00 20.8 12 Sudoeste 21 Sudoeste 0 -- -- 77
2019-10-03 05:00:00 20.5 11 Sur 16 Sur 0 -- -- 81
2019-10-03 04:00:00 19.9 7 Sur 11 Sur 0 -- -- 79
2019-10-03 03:00:00 20.7 5 Sur 12 Oeste 0 -- -- 77
2019-10-03 02:00:00 22.3 8 Noroeste 24 Norte 0 -- -- 70
2019-10-03 01:00:00 22 9 Sudoeste 23 Sudoeste 0 -- -- 68
2019-10-03 00:00:00 21.4 13 Sudoeste 24 Sudoeste 0 -- -- 68
2019-10-02 23:00:00 19.6 11 Sur 19 Sudoeste 0 -- -- 70
2019-10-02 22:00:00 19.2 10 Sur 15 Sur 0 -- -- 69
2019-10-02 21:00:00 20 3 Sudeste 14 Sur 0 -- -- 58
2019-10-02 20:00:00 20.1 7 Sur 13 Sur 0 -- -- 59
2019-10-02 19:00:00 21.6 8 Sur 11 Noroeste 0 -- -- 65
2019-10-02 18:00:00 23.3 8 Noroeste 17 Norte 0 -- -- 60
2019-10-02 17:00:00 23.6 7 Noroeste 24 Norte 0 -- -- 59
2019-10-02 16:00:00 22.6 12 Norte 24 Norte 0 -- -- 60
2019-10-02 15:00:00 22.3 9 Noroeste 17 Noroeste 0 -- -- 67
2019-10-02 14:00:00 22.3 2 Sudeste 21 Noroeste 0 -- -- 70
2019-10-02 13:00:00 21.3 17 Noroeste 27 Noroeste 0 -- -- 81
2019-10-02 12:00:00 21.9 16 Sudoeste 31 Oeste 0.4 -- -- 79
2019-10-02 11:00:00 22.3 9 Sudeste 31 Sudoeste 0 -- -- 69
2019-10-02 10:00:00 23.8 11 Sudeste 21 Sudeste 0 -- -- 66
2019-10-02 09:00:00 21.7 5 Sudeste 13 Sudeste 0 -- -- 85
2019-10-02 08:00:00 20.4 3 Sur 12 Sur 0 -- -- 92
2019-10-02 07:00:00 20.3 9 Sur 12 Sudoeste 0 -- -- 95
2019-10-02 06:00:00 21.3 5 Sudeste 23 Este 0 -- -- 89
2019-10-02 05:00:00 22.1 14 Nordeste 39 Nordeste 0 -- -- 89
2019-10-02 04:00:00 23 10 Nordeste 18 Nordeste 0 -- -- 95
2019-10-02 03:00:00 22.7 3 Este 9 Este 0 -- -- 96
2019-10-02 02:00:00 22.5 5 Sudeste 17 Sur 0 -- -- 91
2019-10-02 01:00:00 20.8 7 Sudeste 13 Sur 0 -- -- 81
2019-10-02 00:00:00 20.4 10 Sur 15 Sur 0 -- -- 78
2019-10-01 23:00:00 20.7 10 Sur 14 Sur 0 -- -- 80
2019-10-01 22:00:00 21.1 12 Sur 15 Sur 0 -- -- 74
2019-10-01 21:00:00 21.3 7 Sur 11 Sur 0 -- -- 79
2019-10-01 20:00:00 21.8 8 Sur 11 Sur 0 -- -- 83
2019-10-01 19:00:00 24.4 4 Sur 18 Oeste 0 -- -- 82
2019-10-01 18:00:00 24.9 10 Oeste 24 Oeste 0 -- -- 84
2019-10-01 17:00:00 25.1 15 Oeste 27 Oeste 0 -- -- 83
2019-10-01 16:00:00 25.2 15 Oeste 28 Oeste 0 -- -- 78
2019-10-01 15:00:00 25.3 14 Oeste 29 Oeste 0 -- -- 79
2019-10-01 14:00:00 25 19 Sudoeste 27 Oeste 0 -- -- 79
2019-10-01 13:00:00 26 3 Norte 6 Norte 0 -- -- 69
2019-10-01 12:00:00 25.9 0 Calma 5 Norte 0 -- -- 71
2019-10-01 11:00:00 25.2 2 Oeste 5 Sur 0 -- -- 71
2019-10-01 10:00:00 22.4 4 Sur 12 Sur 0 -- -- 79
2019-10-01 09:00:00 21.4 6 Sudeste 13 Sur 0 -- -- 90
2019-10-01 08:00:00 19.2 9 Sur 14 Sur 0 -- -- 90
2019-10-01 07:00:00 19.9 9 Sudeste 14 Sur 0 -- -- 91
2019-10-01 06:00:00 19 9 Sur 13 Sur 0 -- -- 90
2019-10-01 05:00:00 19.3 9 Sur 12 Sur 0 -- -- 93
2019-10-01 04:00:00 19.3 10 Sur 14 Sur 0 -- -- 92
2019-10-01 03:00:00 19.2 9 Sur 13 Sur 0 -- -- 93
2019-10-01 02:00:00 19.3 8 Sur 13 Sur 0 -- -- 93
2019-10-01 01:00:00 19.2 6 Sur 12 Sur 0 -- -- 93
2019-10-01 00:00:00 19.7 5 Sur 13 Sur 0 -- -- 93
2019-09-30 23:00:00 19.9 9 Sur 13 Sur 0 -- -- 92
2019-09-30 22:00:00 20.3 10 Sur 13 Sur 0 -- -- 93
2019-09-30 21:00:00 21.5 6 Sur 9 Sur 0 -- -- 93
2019-09-30 20:00:00 21.9 7 Sur 10 Sur 0 -- -- 90
2019-09-30 19:00:00 24.6 3 Noroeste 11 Oeste 0 -- -- 81
2019-09-30 18:00:00 25.3 5 Noroeste 13 Noroeste 0 -- -- 78
2019-09-30 17:00:00 25.5 5 Noroeste 12 Noroeste 0 -- -- 79
2019-09-30 16:00:00 25.9 6 Noroeste 15 Noroeste 0 -- -- 79
2019-09-30 15:00:00 25.2 8 Oeste 20 Oeste 0 -- -- 79
2019-09-30 14:00:00 24.7 9 Noroeste 18 Sudoeste 0 -- -- 79
2019-09-30 13:00:00 24.4 14 Oeste 20 Oeste 0 -- -- 79
2019-09-30 12:00:00 24.5 9 Oeste 14 Oeste 0 -- -- 78
2019-09-30 11:00:00 24.4 7 Oeste 13 Oeste 0 -- -- 77
2019-09-30 10:00:00 22.7 3 Sur 11 Sur 0 -- -- 73
2019-09-30 09:00:00 20.4 9 Sur 14 Sur 0 -- -- 72
2019-09-30 08:00:00 20.2 11 Sur 15 Sur 0 -- -- 75
2019-09-30 07:00:00 20.1 8 Sur 13 Sur 0 -- -- 59
2019-09-30 06:00:00 20.4 7 Sur 14 Sur 0 -- -- 58
2019-09-30 05:00:00 20.4 13 Sur 16 Sur 0 -- -- 54
2019-09-30 04:00:00 20.2 11 Sur 15 Sur 0 -- -- 56
2019-09-30 03:00:00 20.7 12 Sur 15 Sur 0 -- -- 54
2019-09-30 02:00:00 21 11 Sur 15 Sudoeste 0 -- -- 57
2019-09-30 01:00:00 21.1 11 Sur 14 Sur 0 -- -- 58
2019-09-30 00:00:00 21.2 9 Sur 13 Sur 0 -- -- 59
2019-09-29 23:00:00 21.7 8 Sudeste 13 Sur 0 -- -- 60
2019-09-29 22:00:00 22.1 9 Sur 15 Sur 0 -- -- 56
2019-09-29 21:00:00 22.8 7 Sur 13 Sur 0 -- -- 60
2019-09-29 20:00:00 22.4 6 Sur 13 Sur 0 -- -- 63
2019-09-29 19:00:00 26.2 5 Sur 9 Sur 0 -- -- 63
2019-09-29 18:00:00 28.3 2 Nordeste 8 Nordeste 0 -- -- 60
2019-09-29 17:00:00 27.8 4 Norte 9 Norte 0 -- -- 63
2019-09-29 16:00:00 27.2 6 Norte 9 Norte 0 -- -- 69
2019-09-29 15:00:00 26.7 2 Norte 6 Norte 0 -- -- 73
2019-09-29 14:00:00 25.6 2 Norte 6 Noroeste 0 -- -- 75
2019-09-29 13:00:00 24.9 3 Norte 5 Norte 0 -- -- 75
2019-09-29 12:00:00 24.5 3 Norte 7 Nordeste 0 -- -- 77
2019-09-29 11:00:00 24.2 2 Nordeste 5 Nordeste 0 -- -- 76
2019-09-29 10:00:00 23.6 3 Sudeste 11 Sur 0 -- -- 78
2019-09-29 09:00:00 20 10 Sur 14 Sur 0 -- -- 82
2019-09-29 08:00:00 18.8 6 Sur 11 Sur 0 -- -- 93
2019-09-29 07:00:00 18.7 11 Sur 13 Sur 0 -- -- 86
2019-09-29 06:00:00 19.4 8 Sur 14 Sur 0 -- -- 86
2019-09-29 05:00:00 19.2 10 Sur 14 Sudoeste 0 -- -- 84
2019-09-29 04:00:00 19.1 10 Sur 12 Sur 0 -- -- 81
2019-09-29 03:00:00 19.3 10 Sur 13 Sur 0 -- -- 80
2019-09-29 02:00:00 19.5 10 Sur 13 Sur 0 -- -- 79
2019-09-29 01:00:00 19.4 10 Sur 13 Sur 0 -- -- 84
2019-09-29 00:00:00 19.7 9 Sur 12 Sur 0 -- -- 90
2019-09-28 23:00:00 20.3 10 Sur 13 Sur 0 -- -- 94
2019-09-28 22:00:00 20.7 8 Sur 11 Sudoeste 0 -- -- 94
2019-09-28 21:00:00 21.7 5 Sur 8 Sur 0 -- -- 92
2019-09-28 20:00:00 23.4 0 Calma 6 Oeste 0 -- -- 86
2019-09-28 19:00:00 24 3 Noroeste 9 Norte 0 -- -- 84
2019-09-28 18:00:00 24.1 5 Oeste 14 Oeste 0 -- -- 84
2019-09-28 17:00:00 24.6 8 Noroeste 15 Oeste 0 -- -- 80
2019-09-28 16:00:00 26.1 6 Noroeste 14 Oeste 0 -- -- 74
2019-09-28 15:00:00 25.3 7 Oeste 16 Oeste 0 -- -- 75
2019-09-28 14:00:00 25.2 11 Oeste 19 Oeste 0 -- -- 75
2019-09-28 13:00:00 24.9 11 Oeste 19 Oeste 0 -- -- 77
2019-09-28 12:00:00 25 4 Oeste 8 Norte 0 -- -- 75
2019-09-28 11:00:00 25.3 2 Noroeste 5 Oeste 0 -- -- 73
2019-09-28 10:00:00 23.4 2 Sudeste 11 Sur 0 -- -- 74
2019-09-28 09:00:00 21.5 8 Sur 13 Sur 0 -- -- 76
2019-09-28 08:00:00 20.3 10 Sur 13 Sur 0 -- -- 78
2019-09-28 07:00:00 20.5 5 Sudeste 10 Sudeste 0 -- -- 82
2019-09-28 06:00:00 20.5 5 Sur 12 Sur 0 -- -- 81
2019-09-28 05:00:00 20 9 Sur 14 Sur 0 -- -- 79
2019-09-28 04:00:00 20.1 10 Sur 14 Sur 0 -- -- 78
2019-09-28 03:00:00 20.4 9 Sur 14 Sur 0 -- -- 74
2019-09-28 02:00:00 20.5 9 Sur 13 Sur 0 -- -- 77
2019-09-28 01:00:00 20.5 10 Sur 13 Sur 0 -- -- 75
2019-09-28 00:00:00 21.2 7 Sur 10 Sur 0 -- -- 78
2019-09-27 23:00:00 20.8 7 Sur 14 Sur 0 -- -- 75
2019-09-27 22:00:00 21.1 9 Sur 14 Sur 0 -- -- 75
2019-09-27 21:00:00 21.7 10 Sur 12 Sur 0 -- -- 79
2019-09-27 20:00:00 22.9 6 Sudeste 10 Sur 0 -- -- 78
2019-09-27 19:00:00 25.8 3 Sur 14 Norte 0 -- -- 70
2019-09-27 18:00:00 26 7 Norte 14 Norte 0 -- -- 68
2019-09-27 17:00:00 26.4 6 Norte 10 Norte 0 -- -- 67
2019-09-27 16:00:00 26.2 6 Norte 13 Norte 0 -- -- 66
2019-09-27 15:00:00 25.8 7 Norte 10 Norte 0 -- -- 67
2019-09-27 14:00:00 25.3 6 Norte 9 Norte 0 -- -- 67
2019-09-27 13:00:00 25.1 5 Norte 10 Norte 0 -- -- 63
2019-09-27 12:00:00 25.9 2 Noroeste 5 Norte 0 -- -- 63
2019-09-27 11:00:00 26.1 0 Calma 5 Sur 0 -- -- 56
2019-09-27 10:00:00 23.5 2 Sur 12 Sur 0 -- -- 71
2019-09-27 09:00:00 20.9 8 Sur 13 Sur 0 -- -- 75
2019-09-27 08:00:00 19.9 9 Sur 12 Sur 0 -- -- 73
2019-09-27 07:00:00 20 7 Sur 13 Sur 0 -- -- 71
2019-09-27 06:00:00 19.8 8 Sur 12 Sur 0 -- -- 72
2019-09-27 05:00:00 19.9 9 Sur 13 Sur 0 -- -- 75
2019-09-27 04:00:00 20.1 8 Sur 12 Sur 0 -- -- 75
2019-09-27 03:00:00 20.6 8 Sur 13 Sur 0 -- -- 73
2019-09-27 02:00:00 20.9 7 Sur 12 Sur 0 -- -- 68
2019-09-27 01:00:00 20.5 8 Sur 12 Sur 0 -- -- 70
2019-09-27 00:00:00 20.3 9 Sur 14 Sur 0 -- -- 70
2019-09-26 23:00:00 21.1 5 Sur 13 Sur 0 -- -- 67
2019-09-26 22:00:00 20.9 9 Sur 14 Sur 0 -- -- 73
2019-09-26 21:00:00 21 9 Sur 12 Sur 0 -- -- 75
2019-09-26 20:00:00 22.1 4 Sur 9 Sur 0 -- -- 80
2019-09-26 19:00:00 25.7 0 Calma 6 Norte 0 -- -- 71
2019-09-26 18:00:00 25.3 5 Norte 13 Oeste 0 -- -- 74
2019-09-26 17:00:00 25.2 6 Noroeste 12 Noroeste 0 -- -- 73
2019-09-26 16:00:00 25.7 5 Noroeste 11 Norte 0 -- -- 72
2019-09-26 15:00:00 25.2 5 Noroeste 10 Noroeste 0 -- -- 73
2019-09-26 14:00:00 24.6 4 Noroeste 9 Noroeste 0 -- -- 75
2019-09-26 13:00:00 24.5 5 Norte 9 Oeste 0 -- -- 76
2019-09-26 12:00:00 24.2 4 Norte 6 Norte 0 -- -- 78
2019-09-26 11:00:00 23.9 3 Norte 7 Sur 0 -- -- 79
2019-09-26 10:00:00 22 6 Sur 12 Sur 0 -- -- 80
2019-09-26 09:00:00 20.4 9 Sur 13 Sur 0 -- -- 82
2019-09-26 08:00:00 19.1 10 Sur 14 Sur 0 -- -- 92
2019-09-26 07:00:00 19.2 10 Sur 14 Sur 0 -- -- 92
2019-09-26 06:00:00 19.7 10 Sur 13 Sudoeste 0 -- -- 92
2019-09-26 05:00:00 19.9 10 Sur 13 Sudoeste 0 -- -- 92
2019-09-26 04:00:00 20 10 Sur 15 Sudoeste 0 -- -- 89
2019-09-26 03:00:00 20.2 9 Sur 13 Sur 0 -- -- 79
2019-09-26 02:00:00 20.1 8 Sur 13 Sur 0 -- -- 67
2019-09-26 01:00:00 20.1 8 Sur 12 Sur 0 -- -- 66
2019-09-26 00:00:00 20.3 5 Sur 10 Sur 0 -- -- 73
2019-09-25 23:00:00 19.8 6 Sur 9 Sur 0 -- -- 85
2019-09-25 22:00:00 20.4 7 Sur 12 Sur 0 -- -- 90
2019-09-25 21:00:00 20.4 8 Sur 12 Sur 0 -- -- 84
2019-09-25 20:00:00 21 7 Sur 13 Nordeste 0 -- -- 73
2019-09-25 19:00:00 23.6 9 Nordeste 28 Nordeste 0 -- -- 81
2019-09-25 18:00:00 23.5 17 Nordeste 30 Nordeste 0 -- -- 83
2019-09-25 17:00:00 23.7 19 Nordeste 30 Nordeste 0 -- -- 83
2019-09-25 16:00:00 23.6 23 Nordeste 36 Nordeste 0 -- -- 85
2019-09-25 15:00:00 22.9 24 Nordeste 35 Nordeste 0 -- -- 91
2019-09-25 14:00:00 23.6 22 Nordeste 35 Nordeste 0 -- -- 88
2019-09-25 13:00:00 23.6 15 Nordeste 24 Nordeste 0 -- -- 86
2019-09-25 12:00:00 24.2 11 Nordeste 18 Este 0 -- -- 85
2019-09-25 11:00:00 23.9 4 Nordeste 10 Este 0 -- -- 84
2019-09-25 10:00:00 24.7 6 Este 13 Este 0 -- -- 75
2019-09-25 09:00:00 22.7 5 Sur 14 Sur 0 -- -- 83
2019-09-25 08:00:00 20.6 9 Sur 16 Sur 0 -- -- 77
2019-09-25 07:00:00 21.6 5 Sudeste 14 Sur 0 -- -- 59
2019-09-25 06:00:00 21.3 8 Sur 13 Sur 0 -- -- 61
2019-09-25 05:00:00 22.4 8 Sudeste 14 Sudeste 0 -- -- 60
2019-09-25 04:00:00 22.1 6 Sudeste 13 Sur 0 -- -- 53
2019-09-25 03:00:00 22.4 7 Sur 14 Sur 0 -- -- 51
2019-09-25 02:00:00 22.1 8 Sur 13 Sur 0 -- -- 50
2019-09-25 01:00:00 22.2 9 Sur 13 Sur 0 -- -- 50
2019-09-25 00:00:00 21.5 10 Sur 13 Sur 0 -- -- 56
2019-09-24 23:00:00 21.9 7 Sur 13 Sur 0 -- -- 54
2019-09-24 22:00:00 22 10 Sur 14 Sur 0 -- -- 54
2019-09-24 21:00:00 22.8 11 Sur 15 Sur 0 -- -- 52
2019-09-24 20:00:00 23.8 9 Sur 14 Sur 0 -- -- 51
2019-09-24 19:00:00 27.3 11 Oeste 30 Oeste 0 -- -- 44
2019-09-24 18:00:00 26.7 20 Oeste 33 Oeste 0 -- -- 54
2019-09-24 17:00:00 26.6 16 Sudoeste 29 Sudoeste 0 -- -- 66
2019-09-24 16:00:00 26.4 17 Sudoeste 30 Sudoeste 0 -- -- 72
2019-09-24 15:00:00 26.9 9 Oeste 23 Oeste 0 -- -- 60
2019-09-24 14:00:00 25.7 14 Oeste 26 Oeste 0 -- -- 69
2019-09-24 13:00:00 25.6 13 Oeste 26 Oeste 0 -- -- 67
2019-09-24 12:00:00 25.2 16 Oeste 26 Oeste 0 -- -- 77
2019-09-24 11:00:00 26.1 2 Norte 5 Sur 0 -- -- 54
2019-09-24 10:00:00 23.3 4 Sur 10 Sur 0 -- -- 65
2019-09-24 09:00:00 21.8 7 Sur 16 Sudoeste 0 -- -- 63
2019-09-24 08:00:00 21.7 10 Sudoeste 18 Sudoeste 0 -- -- 59
2019-09-24 07:00:00 20.7 9 Sudoeste 14 Sur 0 -- -- 65
2019-09-24 06:00:00 19.5 8 Sur 12 Sur 0 -- -- 67
2019-09-24 05:00:00 19.3 10 Sur 14 Sur 0 -- -- 65
2019-09-24 04:00:00 19.5 11 Sur 14 Sur 0 -- -- 64
2019-09-24 03:00:00 19.8 8 Sur 13 Sur 0 -- -- 61
2019-09-24 02:00:00 19.9 10 Sur 13 Sur 0 -- -- 61
2019-09-24 01:00:00 19.9 10 Sur 14 Sur 0 -- -- 62
2019-09-24 00:00:00 20.1 9 Sur 15 Sur 0 -- -- 62
2019-09-23 23:00:00 20.2 11 Sur 14 Sur 0 -- -- 64
2019-09-23 22:00:00 20.2 10 Sur 14 Sur 0 -- -- 72
2019-09-23 21:00:00 21 8 Sur 12 Sur 0 -- -- 86
2019-09-23 20:00:00 22.1 6 Sur 11 Oeste 0 -- -- 81
2019-09-23 19:00:00 23.7 0 Calma 8 Norte 0 -- -- 75
2019-09-23 18:00:00 24.8 5 Norte 8 Norte 0 -- -- 71
2019-09-23 17:00:00 25.1 6 Norte 10 Norte 0 -- -- 72
2019-09-23 16:00:00 24.7 7 Norte 13 Norte 0 -- -- 71
2019-09-23 15:00:00 25 8 Norte 13 Norte 0 -- -- 71
2019-09-23 14:00:00 24.6 6 Norte 12 Norte 0 -- -- 74
2019-09-23 13:00:00 24 5 Norte 15 Norte 0 -- -- 75
2019-09-23 12:00:00 24.3 8 Norte 14 Norte 0 -- -- 75
2019-09-23 11:00:00 24.3 7 Norte 12 Nordeste 0 -- -- 76
2019-09-23 10:00:00 23.3 5 Norte 12 Nordeste 0 -- -- 84
2019-09-23 09:00:00 22.4 4 Este 11 Nordeste 0 -- -- 90
2019-09-23 08:00:00 21.6 5 Sur 21 Nordeste 0 -- -- 92
2019-09-23 07:00:00 22.6 12 Nordeste 26 Este 0 -- -- 93
2019-09-23 06:00:00 22.5 15 Nordeste 28 Nordeste 0 -- -- 94
2019-09-23 05:00:00 22.1 3 Sur 8 Sur 0 -- -- 92
2019-09-23 04:00:00 23.2 3 Sudeste 12 Sudoeste 0 -- -- 88
2019-09-23 03:00:00 23.7 5 Sudoeste 10 Sudoeste 0 -- -- 82
2019-09-23 02:00:00 24.1 6 Sudoeste 24 Sudoeste 0 -- -- 74
2019-09-23 01:00:00 23.3 8 Sudoeste 13 Sur 0 -- -- 81
2019-09-23 00:00:00 22.1 7 Sur 12 Sur 0 -- -- 79
2019-09-22 23:00:00 22.5 5 Sur 12 Sur 0 -- -- 77
2019-09-22 22:00:00 22.8 6 Sur 12 Sur 0 -- -- 73
2019-09-22 21:00:00 23.5 4 Sur 10 Sur 0 -- -- 68
2019-09-22 20:00:00 24.6 8 Sur 17 Sudoeste 0 -- -- 69
2019-09-22 19:00:00 27 8 Sudoeste 20 Oeste 0 -- -- 63
2019-09-22 18:00:00 26.8 12 Oeste 25 Sudoeste 0 -- -- 71
2019-09-22 17:00:00 27.1 12 Sudoeste 22 Oeste 0 -- -- 75
2019-09-22 16:00:00 27.9 9 Oeste 21 Sudoeste 0 -- -- 67
2019-09-22 15:00:00 27.2 14 Oeste 24 Oeste 0 -- -- 68
2019-09-22 14:00:00 26.9 12 Oeste 23 Oeste 0 -- -- 76
2019-09-22 13:00:00 26.3 13 Oeste 24 Oeste 0 -- -- 81
2019-09-22 12:00:00 25.3 14 Oeste 24 Oeste 0 -- -- 85
2019-09-22 11:00:00 26 3 Norte 7 Este 0 -- -- 76
2019-09-22 10:00:00 24.9 0 Calma 8 Sudeste 0 -- -- 80
2019-09-22 09:00:00 22.9 5 Sur 12 Sur 0 -- -- 87
2019-09-22 08:00:00 23 7 Sudoeste 15 Sur 0 -- -- 87
2019-09-22 07:00:00 22.3 4 Sudoeste 13 Sudoeste 0 -- -- 91
2019-09-22 06:00:00 22.1 8 Sudoeste 13 Sur 0 -- -- 94
2019-09-22 05:00:00 23.3 6 Oeste 15 Oeste 0 -- -- 93
2019-09-22 04:00:00 23.4 5 Sudoeste 12 Sudoeste 0 -- -- 90
2019-09-22 03:00:00 23 9 Sudoeste 12 Sudoeste 0 -- -- 83
2019-09-22 02:00:00 22.9 8 Sudoeste 13 Sur 0 -- -- 81
2019-09-22 01:00:00 23.9 11 Sudoeste 15 Sudoeste 0 -- -- 76
2019-09-22 00:00:00 23.3 4 Sur 9 Sur 0 -- -- 88
2019-09-21 23:00:00 23.4 4 Sur 9 Sudoeste 0 -- -- 88
2019-09-21 22:00:00 23 4 Sur 7 Sur 0 -- -- 91
2019-09-21 21:00:00 23.8 4 Sur 9 Sur 0 -- -- 89
2019-09-21 20:00:00 24.2 3 Nordeste 14 Norte 0 -- -- 92
2019-09-21 19:00:00 24.6 9 Norte 15 Norte 0 -- -- 89
2019-09-21 18:00:00 26.2 0 Calma 9 Noroeste 0 -- -- 80
2019-09-21 17:00:00 26.7 3 Oeste 9 Norte 0 -- -- 79
2019-09-21 16:00:00 27.4 5 Norte 9 Norte 0 -- -- 70
2019-09-21 15:00:00 27.8 5 Norte 9 Norte 0 -- -- 69
2019-09-21 14:00:00 26.4 6 Norte 10 Norte 0 -- -- 77
2019-09-21 13:00:00 26.8 0 Calma 8 Noroeste 0 -- -- 71
2019-09-21 12:00:00 26.1 4 Oeste 10 Norte 0 -- -- 76
2019-09-21 11:00:00 25.6 5 Norte 33 Nordeste 0 -- -- 79
2019-09-21 10:00:00 25.2 17 Este 45 Sudeste 0 -- -- 83
2019-09-21 09:00:00 24.9 10 Sudeste 31 Sudeste 0 -- -- 82
2019-09-21 08:00:00 24.4 18 Sudeste 52 Este 0 -- -- 83
2019-09-21 07:00:00 23.7 14 Este 36 Sudeste 0 -- -- 88
2019-09-21 06:00:00 24.1 3 Este 27 Este 0 -- -- 84
2019-09-21 05:00:00 23.9 4 Norte 23 Nordeste 0 -- -- 84
2019-09-21 04:00:00 23.4 5 Sudeste 17 Este 0 -- -- 84
2019-09-21 03:00:00 23.7 8 Este 27 Este 0 -- -- 82
2019-09-21 02:00:00 23.5 9 Este 36 Este 0 -- -- 83
2019-09-21 01:00:00 23.7 9 Este 23 Sudeste 0 -- -- 78
2019-09-21 00:00:00 23.6 8 Nordeste 17 Nordeste 0 -- -- 78
2019-09-20 23:00:00 22.9 4 Sudeste 23 Sudeste 0 -- -- 76
2019-09-20 22:00:00 23.6 14 Sudeste 29 Sudeste 0 -- -- 72
2019-09-20 21:00:00 24.1 12 Este 27 Este 0 -- -- 75
2019-09-20 20:00:00 24.5 10 Este 25 Este 0 -- -- 73
2019-09-20 19:00:00 24.6 6 Norte 14 Oeste 0 -- -- 79
2019-09-20 18:00:00 25.4 6 Oeste 23 Nordeste 0 -- -- 79
2019-09-20 17:00:00 25.4 14 Nordeste 27 Nordeste 0 -- -- 77
2019-09-20 16:00:00 25.1 17 Nordeste 28 Nordeste 0 -- -- 82
2019-09-20 15:00:00 24.8 17 Nordeste 30 Nordeste 0 -- -- 83
2019-09-20 14:00:00 25 16 Nordeste 23 Nordeste 0 -- -- 77
2019-09-20 13:00:00 25.4 10 Nordeste 18 Nordeste 0 -- -- 65
2019-09-20 12:00:00 24.5 5 Norte 17 Nordeste 0 -- -- 77
2019-09-20 11:00:00 24.4 11 Nordeste 22 Nordeste 0 -- -- 77
2019-09-20 10:00:00 24.1 12 Este 23 Este 0 -- -- 72
2019-09-20 09:00:00 22.9 3 Sudeste 9 Sudeste 0 -- -- 94
2019-09-20 08:00:00 21.5 5 Sudeste 9 Sudeste 0 -- -- 95
2019-09-20 07:00:00 21.4 6 Sur 11 Sudeste 0 -- -- 94
2019-09-20 06:00:00 21.3 6 Sudeste 10 Sudeste 0 -- -- 95
2019-09-20 05:00:00 21.7 5 Sudeste 12 Sudeste 0 -- -- 93
2019-09-20 04:00:00 21.2 6 Sur 10 Sur 0 -- -- 94
2019-09-20 03:00:00 21.5 5 Sur 9 Sudoeste 0 -- -- 94
2019-09-20 02:00:00 21.3 8 Sur 11 Sur 0 -- -- 96
2019-09-20 01:00:00 21.3 8 Sur 11 Sur 0 -- -- 95
2019-09-20 00:00:00 21.4 9 Sur 12 Sur 0 -- -- 96
2019-09-19 23:00:00 21.6 5 Sur 10 Sur 0 -- -- 96
2019-09-19 22:00:00 21.9 8 Sur 12 Sur 0 -- -- 94
2019-09-19 21:00:00 22.5 4 Sur 8 Sur 0 -- -- 92
2019-09-19 20:00:00 23.8 3 Este 9 Sudoeste 0 -- -- 89
2019-09-19 19:00:00 24.5 0 Calma 13 Norte 0 -- -- 86
2019-09-19 18:00:00 24.6 8 Norte 16 Norte 0 -- -- 87
2019-09-19 17:00:00 24.6 12 Nordeste 21 Nordeste 0 -- -- 87
2019-09-19 16:00:00 24.1 12 Nordeste 17 Nordeste 0 -- -- 90
2019-09-19 15:00:00 24.8 10 Nordeste 17 Norte 0 -- -- 86
2019-09-19 14:00:00 25 8 Nordeste 18 Norte 0 -- -- 82
2019-09-19 13:00:00 24.7 12 Nordeste 17 Nordeste 0 -- -- 82
2019-09-19 12:00:00 24.3 9 Norte 15 Norte 0 -- -- 83
2019-09-19 11:00:00 24.4 5 Nordeste 8 Nordeste 0 -- -- 81
2019-09-19 10:00:00 24.2 3 Nordeste 8 Sur 0 -- -- 82
2019-09-19 09:00:00 21.5 4 Sur 12 Sur 0 -- -- 88
2019-09-19 08:00:00 19.9 8 Sur 13 Sur 0 -- -- 87
2019-09-19 07:00:00 19.6 11 Sur 14 Sur 0 -- -- 89
2019-09-19 06:00:00 19.6 12 Sur 16 Sur 0 -- -- 88
2019-09-19 05:00:00 20.9 6 Sur 10 Sur 0 -- -- 95
2019-09-19 04:00:00 20.8 5 Sur 11 Sur 0 -- -- 93
2019-09-19 03:00:00 20.3 8 Sur 12 Sur 0 -- -- 90
2019-09-19 02:00:00 20.4 7 Sur 13 Sur 0 -- -- 89
2019-09-19 01:00:00 20.6 10 Sur 13 Sur 0 -- -- 89
2019-09-19 00:00:00 20.6 9 Sur 13 Sur 0 -- -- 86
2019-09-18 23:00:00 21 10 Sur 13 Sur 0 -- -- 88
2019-09-18 22:00:00 21.8 8 Sur 12 Sur 0 -- -- 85
2019-09-18 21:00:00 22.7 8 Sudeste 12 Sur 0 -- -- 81
2019-09-18 20:00:00 23.8 4 Nordeste 13 Este 0 -- -- 78
2019-09-18 19:00:00 24.9 10 Nordeste 15 Nordeste 0 -- -- 75
2019-09-18 18:00:00 25.8 9 Norte 15 Norte 0 -- -- 70
2019-09-18 17:00:00 26.4 5 Norte 11 Norte 0 -- -- 63
2019-09-18 16:00:00 26.1 7 Norte 13 Norte 0 -- -- 71
2019-09-18 15:00:00 25.6 7 Norte 12 Norte 0 -- -- 74
2019-09-18 14:00:00 25.6 4 Norte 8 Norte 0 -- -- 76
2019-09-18 13:00:00 25 4 Norte 9 Norte 0 -- -- 77
2019-09-18 12:00:00 24.6 4 Norte 6 Norte 0 -- -- 82
2019-09-18 11:00:00 24.3 3 Norte 8 Norte 0 -- -- 80
2019-09-18 10:00:00 23.8 3 Sur 11 Sur 0 -- -- 75
2019-09-18 09:00:00 21.7 5 Sudeste 11 Sur 0 -- -- 80
2019-09-18 08:00:00 19.9 6 Sur 11 Sur 0 -- -- 73
2019-09-18 07:00:00 19.7 8 Sur 13 Sur 0 -- -- 75
2019-09-18 06:00:00 19.7 9 Sur 13 Sur 0 -- -- 76
2019-09-18 05:00:00 20.4 6 Sur 12 Sudeste 0 -- -- 96
2019-09-18 04:00:00 20.7 5 Sur 13 Sur 0 -- -- 97
2019-09-18 03:00:00 21.2 9 Sur 11 Sur 0 -- -- 96
2019-09-18 02:00:00 22.8 5 Sudoeste 12 Norte 0 -- -- 94
2019-09-18 01:00:00 22.9 3 Sudoeste 12 Sudoeste 0 -- -- 95
2019-09-18 00:00:00 22.1 9 Sudoeste 12 Sur 0 -- -- 92
2019-09-17 23:00:00 21.6 7 Sur 10 Sur 0 -- -- 94
2019-09-17 22:00:00 21.9 5 Sur 10 Sur 0 -- -- 96
2019-09-17 21:00:00 22.5 5 Sur 9 Sudeste 0 -- -- 92